Theta_e
305 296 293 292 294 296 298 300 300 302 302 301 301 299 297 297 299 302 302 304 305 302 300 301 301 306 307 309 309 311 312 313 314 315 316 320 322 322 323 324 325 324 325 327 328 332 333 335 338 341 342 341 343 344 345 344 344 345 343 345 343 345 346 345 343 343 343 343 343 343 341 345 344 340 343 342 342 343 342 342 341 341 340 340 342 343
302 294 294 296 297 299 299 301 302 301 301 300 299 298 297 298 297 301 302 304 305 302 300 302 303 305 308 310 312 314 313 312 313 314 319 322 322 322 322 321 322 324 327 329 331 332 333 335 338 339 339 340 338 339 341 341 341 342 342 342 342 345 345 344 345 345 343 346 343 342 341 342 342 343 340 340 339 339 339 340 342 343 342 341 341 341
295 293 296 299 300 301 301 301 302 300 299 300 299 299 297 298 301 304 304 304 304 302 299 302 304 306 309 311 314 317 317 318 320 320 322 322 322 323 324 322 323 324 325 329 327 328 328 329 330 332 334 335 336 337 336 338 339 339 339 340 341 342 343 343 344 344 342 345 345 343 345 343 343 344 342 341 340 341 341 342 341 341 341 340 339 340
292 295 299 301 301 299 300 301 300 300 300 299 299 298 295 299 298 296 302 303 304 302 300 301 304 306 310 312 312 317 317 318 319 320 320 322 322 322 323 324 323 322 323 323 324 325 325 326 327 328 329 331 333 333 334 335 336 337 337 339 340 341 342 343 343 342 345 345 347 347 346 345 347 343 344 344 343 343 341 339 340 341 342 341 341 341
294 298 302 301 300 299 298 300 299 298 297 300 300 299 298 298 299 299 299 303 304 303 304 302 303 303 306 306 310 314 316 315 316 318 319 320 321 321 321 321 322 321 321 321 322 323 323 323 324 325 327 329 329 330 331 333 333 335 336 337 339 340 341 342 342 344 345 344 344 347 345 347 345 345 342 343 341 340 340 340 342 342 342 341 341 342
297 301 302 300 299 299 298 297 299 299 296 298 301 301 301 300 300 300 301 299 298 297 300 300 295 296 304 306 308 311 312 312 314 314 314 316 317 318 317 318 319 320 321 321 321 321 322 322 323 324 325 326 327 328 330 332 332 333 333 334 337 338 339 339 341 343 342 342 343 342 339 338 339 338 338 334 336 338 337 337 342 343 343 342 341 341
299 302 301 299 298 298 298 297 299 300 296 296 298 303 302 301 301 300 299 298 293 291 298 303 296 292 303 302 307 309 311 310 312 312 313 313 314 315 315 316 317 318 318 320 321 321 321 321 322 322 323 324 324 326 329 330 331 332 332 333 335 337 337 339 339 341 341 341 340 340 338 339 338 337 338 343 344 342 342 341 341 343 346 342 341 342
301 301 300 300 298 297 296 295 299 300 297 295 302 303 302 300 299 299 299 298 296 300 301 301 300 294 294 300 307 309 309 308 308 310 311 311 312 313 314 315 316 317 318 318 318 319 320 320 320 320 322 323 323 326 327 328 329 329 330 332 332 334 335 336 337 338 340 338 338 338 338 337 336 339 338 340 341 344 343 341 342 342 344 344 343 341
301 299 299 298 297 296 295 298 301 301 298 298 303 303 301 300 300 300 299 297 298 297 293 297 301 294 295 300 308 308 305 307 307 308 308 310 311 312 313 314 316 317 317 317 317 317 318 318 319 320 320 322 323 324 325 326 327 328 328 330 330 330 332 332 334 335 337 338 338 338 337 336 337 337 337 337 339 340 342 341 341 340 341 343 343 343
301 301 301 301 297 295 299 300 301 302 297 301 304 303 302 301 301 300 299 297 297 294 290 295 299 292 292 301 303 306 304 304 306 307 308 309 310 311 312 314 315 316 316 317 316 317 317 318 319 320 321 321 322 324 324 324 325 325 326 327 327 326 328 330 331 332 333 335 336 336 335 335 335 335 336 337 336 337 338 337 339 336 336 338 339 342
303 305 306 302 298 300 300 301 302 302 302 305 303 300 299 299 299 299 299 298 295 289 291 297 299 296 291 298 301 301 302 305 306 307 308 309 310 311 312 313 314 314 315 315 315 316 316 318 319 319 318 319 321 322 322 323 323 324 323 324 324 324 326 327 328 330 331 332 333 333 333 333 333 333 333 333 333 334 334 335 336 339 336 335 337 340
302 303 301 303 305 303 303 300 302 304 304 302 299 297 297 296 297 296 296 297 289 287 293 298 298 298 289 297 305 307 309 309 307 306 306 307 308 309 311 312 313 313 314 314 314 314 315 316 316 317 316 317 318 319 320 321 322 322 322 323 322 324 325 326 326 328 328 329 329 329 331 331 332 332 332 332 332 332 332 333 334 336 338 339 338 339
297 299 301 302 306 302 300 298 300 302 302 300 298 297 292 289 289 286 290 287 287 287 294 298 298 294 293 300 306 307 308 309 310 309 308 308 308 309 311 311 312 313 313 312 312 313 313 313 314 315 315 315 316 317 318 319 321 322 322 322 321 321 324 324 325 325 326 327 327 327 328 328 328 328 329 331 332 333 332 332 332 333 333 334 335 336
295 300 299 300 302 304 302 295 295 294 297 296 294 293 290 286 284 282 286 289 289 292 297 297 299 292 300 303 310 308 309 310 310 310 310 309 309 309 310 311 311 312 312 311 312 312 312 312 313 314 314 314 315 316 318 318 319 320 320 321 320 320 323 323 324 324 324 325 326 326 326 325 324 325 326 328 328 330 332 333 332 332 333 333 334 335
287 289 295 298 295 303 301 299 298 296 296 296 299 296 293 291 287 282 285 283 286 288 294 298 293 293 294 297 308 307 309 310 310 310 310 310 310 310 310 310 310 310 310 310 310 311 311 312 312 312 312 313 314 315 317 317 317 318 319 319 319 320 322 323 323 324 323 323 324 325 324 324 324 324 325 326 328 329 329 331 333 333 332 332 334 334
292 292 298 301 302 303 299 302 302 300 297 298 299 299 294 292 297 288 289 289 290 289 289 292 291 300 299 306 307 309 309 308 309 308 309 308 309 309 308 308 308 309 309 309 309 310 310 311 312 312 312 313 313 314 316 316 318 318 318 319 319 319 320 320 322 322 323 323 323 324 323 324 324 323 324 324 325 326 327 327 329 332 333 332 334 335
293 291 300 300 303 301 300 302 301 302 290 296 297 292 295 301 298 292 291 297 292 289 287 297 296 298 304 307 306 306 306 306 307 308 307 307 307 307 306 307 307 307 307 308 308 308 309 310 311 311 311 312 313 314 316 317 318 317 318 318 318 318 319 320 321 322 321 322 321 322 325 322 323 322 322 323 323 324 325 326 327 329 330 332 333 334
292 291 299 299 297 302 303 303 302 302 302 298 292 296 301 303 301 295 286 289 287 285 287 297 292 293 295 289 305 303 303 304 305 306 307 307 306 305 305 306 306 306 307 308 308 309 309 310 310 311 312 312 313 314 316 316 319 319 319 319 319 317 317 318 319 320 319 320 319 320 320 322 321 322 322 322 321 322 322 324 324 325 325 326 329 331
299 290 296 299 299 301 303 302 299 302 304 299 296 303 294 289 288 294 290 284 283 283 285 294 295 295 297 295 301 300 301 302 304 305 305 305 305 304 304 305 305 306 306 306 307 307 308 309 310 311 311 312 313 316 316 316 318 318 319 318 317 317 317 318 319 320 320 320 319 320 319 320 320 321 320 321 321 321 321 321 321 322 323 325 327 328
299 290 292 300 298 301 301 298 291 295 301 302 303 299 301 297 293 290 290 292 290 285 285 288 294 290 299 299 301 301 303 303 303 303 303 304 304 304 304 304 304 304 305 305 306 307 308 309 310 311 312 312 313 314 316 317 317 316 317 317 317 318 318 317 318 318 317 319 318 319 319 319 320 319 319 320 320 319 319 320 320 321 322 323 325 326
294 299 288 295 300 300 292 296 293 296 294 296 296 295 296 297 300 297 297 291 289 286 286 287 286 292 299 305 304 304 304 304 304 303 303 303 304 305 304 304 304 304 305 305 306 307 308 309 311 311 312 312 313 314 315 315 314 314 314 315 315 315 315 316 317 318 317 317 318 318 318 318 318 318 318 320 319 319 319 319 320 320 321 323 323 324
293 294 289 294 293 293 294 300 299 299 299 297 295 294 295 292 290 287 287 296 293 290 287 286 285 294 301 305 308 305 306 305 305 303 303 303 303 303 304 304 304 304 305 306 306 307 308 310 311 311 312 313 312 312 312 313 312 312 312 313 314 313 313 314 314 315 316 316 317 316 317 317 317 318 317 318 318 317 317 318 319 319 319 319 320 321
301 299 294 290 293 294 297 301 302 303 302 300 298 295 297 297 295 291 285 289 293 293 295 293 289 290 300 304 307 306 306 305 305 304 303 303 303 303 303 304 304 305 305 305 306 307 309 309 309 310 310 310 310 310 311 311 311 311 312 312 313 312 312 313 313 315 315 315 315 316 316 316 316 316 316 316 316 316 316 316 317 318 317 317 318 319
303 292 291 293 296 298 300 302 301 301 300 298 298 299 297 294 295 293 292 296 291 291 289 290 287 289 299 304 308 307 306 305 305 304 302 302 303 303 303 303 303 304 305 305 306 308 308 308 309 308 308 308 309 309 309 310 310 310 311 311 311 311 312 312 313 314 314 314 314 315 314 314 314 315 315 314 315 314 315 315 315 316 315 315 316 315
292 296 294 289 289 291 293 296 297 299 299 296 296 298 298 298 298 298 298 302 290 292 292 291 284 288 298 303 306 304 303 302 302 303 303 301 302 302 303 303 304 304 304 305 306 306 308 308 307 307 307 308 308 309 310 309 309 310 310 310 310 311 312 312 313 312 312 313 313 313 313 313 313 313 313 313 313 313 313 314 314 314 313 313 313 313
296 295 293 286 283 282 281 283 286 289 292 296 297 297 298 297 297 296 290 292 288 292 293 290 288 293 298 301 301 301 301 300 302 302 303 303 302 301 302 303 303 303 304 304 305 305 305 306 306 306 307 308 308 308 308 308 309 309 309 310 311 310 311 311 312 312 312 312 312 311 312 312 312 311 312 312 312 312 312 312 312 311 312 312 311 311
297 299 296 293 290 288 290 293 297 297 295 292 295 296 297 297 298 298 297 291 288 292 290 294 292 290 292 296 297 299 299 298 299 300 301 301 301 302 302 303 303 303 304 304 304 304 305 305 305 306 307 307 307 307 307 307 308 308 308 309 310 310 311 312 312 311 311 311 311 310 310 311 311 311 311 311 311 311 311 311 311 310 310 311 310 309
297 293 295 297 296 298 298 296 298 297 294 295 296 296 297 297 298 298 291 291 298 293 288 295 294 292 292 295 297 297 298 298 299 300 300 301 301 301 302 303 304 303 304 304 304 304 303 304 305 305 305 306 307 307 307 307 308 307 307 308 309 310 311 311 311 310 310 310 309 309 309 310 310 310 310 310 310 310 310 310 310 309 309 309 308 308
296 290 297 300 299 299 300 298 299 297 297 297 297 297 297 298 298 296 298 300 300 293 290 295 296 293 294 295 297 297 298 298 298 299 301 302 302 301 302 302 302 302 302 303 303 303 303 303 304 304 304 305 306 306 306 306 306 307 308 308 308 309 309 310 309 309 309 308 308 308 309 309 310 310 309 309 309 309 308 308 309 309 308 308 308 308
298 293 301 300 297 298 298 298 300 297 296 297 296 297 298 298 299 298 298 301 301 298 298 297 297 294 295 296 297 298 299 299 299 301 301 300 300 301 301 301 301 301 301 302 302 302 303 303 303 303 304 304 304 304 305 305 305 306 306 307 307 308 309 309 308 308 307 307 307 307 307 308 308 308 308 308 307 308 308 307 307 307 307 307 307 307
297 292 298 299 296 296 299 299 299 299 298 295 296 296 297 300 304 299 303 301 301 299 299 297 294 292 296 298 297 298 299 300 299 299 299 300 301 301 301 300 300 301 301 302 302 302 303 303 303 303 303 303 304 304 304 305 305 306 306 306 307 307 308 308 307 307 306 306 306 306 307 306 307 307 306 307 307 307 307 306 307 306 306 306 306 306
299 295 301 299 291 292 297 298 299 302 301 299 296 296 301 299 299 300 298 302 299 296 296 294 290 289 294 297 296 297 297 297 297 298 299 300 300 301 300 300 300 301 301 301 301 302 302 302 302 302 302 303 304 304 304 305 305 305 305 306 306 307 308 308 307 306 306 306 306 306 305 306 306 306 306 306 306 306 306 306 305 305 305 305 305 305
298 298 294 293 290 290 296 300 299 300 297 294 293 297 300 299 301 302 302 303 301 298 292 289 290 293 294 295 293 294 295 296 297 298 298 299 300 300 300 300 300 300 300 300 300 301 301 301 301 302 302 303 303 303 304 305 305 304 305 306 307 307 307 306 306 305 305 305 305 305 306 305 305 305 305 305 306 306 305 305 304 304 303 304 304 304
300 299 293 297 289 290 294 299 299 292 285 286 298 301 302 300 300 296 294 296 298 299 296 298 294 294 294 293 293 293 294 295 296 298 300 300 299 299 299 300 300 300 300 300 300 300 301 301 302 302 303 303 304 304 306 306 306 306 307 306 306 306 306 305 305 305 304 305 304 305 305 305 304 304 304 305 305 305 305 304 303 303 304 304 304 303
298 297 295 298 291 290 294 295 288 282 284 293 300 303 304 301 299 296 296 296 294 294 293 292 293 293 294 295 294 294 295 296 298 298 299 300 300 299 298 299 299 299 299 300 300 300 301 301 302 303 303 304 305 306 306 305 306 306 305 306 305 305 305 304 304 304 304 304 304 304 304 304 304 304 304 304 304 304 304 304 303 303 303 303 303 302
295 295 295 291 293 293 289 288 281 283 292 298 299 300 301 300 298 296 293 295 296 295 294 292 293 294 295 294 295 295 295 296 297 298 298 299 300 299 298 298 299 299 299 299 300 300 301 301 302 302 303 305 304 304 304 304 306 305 305 305 304 305 304 304 304 303 304 303 303 303 303 303 303 303 303 303 303 303 303 303 303 303 303 303 302 303
301 299 295 291 295 287 289 287 285 289 291 294 296 297 298 295 296 294 286 289 296 296 295 293 293 294 293 294 294 295 296 295 293 294 298 299 300 300 299 299 299 300 300 301 301 301 302 303 303 304 305 305 305 303 304 305 305 305 304 304 305 304 303 303 303 302 303 303 303 303 303 303 303 303 302 302 302 302 302 302 302 303 303 302 302 301
303 295 297 292 289 293 288 285 285 286 283 287 296 301 304 303 302 299 293 288 296 297 297 294 292 292 292 293 293 294 294 291 287 289 295 298 299 299 300 300 301 301 301 301 302 302 303 303 303 304 304 304 304 304 304 304 304 304 303 303 303 302 302 302 301 302 302 302 303 303 303 303 302 302 302 302 302 302 302 302 302 302 303 302 301 300
302 303 301 294 291 290 289 286 285 284 287 294 296 300 303 304 301 300 293 285 293 296 296 294 292 293 293 292 292 293 291 287 286 289 295 297 298 299 299 300 300 301 301 301 301 301 301 302 302 302 303 303 301 303 304 303 303 302 301 301 301 301 301 301 301 302 302 302 303 303 303 303 303 302 302 301 302 302 302 302 301 302 302 302 301 301
299 296 294 292 288 290 290 287 285 287 287 295 299 301 302 305 303 299 287 285 292 295 296 295 293 292 293 293 293 293 291 286 286 291 296 298 298 299 299 299 299 300 300 301 302 302 302 302 302 301 301 301 301 303 303 302 302 302 301 301 301 300 300 301 301 302 302 302 303 303 303 303 303 303 302 301 301 302 302 302 301 301 301 301 301 300
292 291 292 289 291 289 288 287 288 289 295 300 300 302 303 305 301 288 285 290 295 295 296 295 294 294 294 294 294 292 295 294 294 296 297 298 298 298 299 300 301 301 300 300 300 301 301 300 300 300 300 301 301 302 302 302 302 301 301 301 300 300 301 302 302 302 302 302 302 302 302 303 303 303 302 302 302 302 302 301 301 301 300 300 300 300
290 290 291 291 289 288 289 287 287 289 296 300 302 303 304 299 287 288 294 298 296 296 298 296 295 295 295 295 296 294 294 295 296 297 297 297 297 298 299 300 300 301 301 301 301 301 301 300 301 301 301 301 301 302 301 301 300 300 300 300 300 301 302 302 302 302 302 301 301 302 302 303 304 304 304 303 303 301 301 301 301 300 300 300 299 299
292 288 287 288 289 289 289 286 285 283 291 302 302 300 302 292 292 297 297 297 298 297 297 297 297 296 297 295 296 295 295 295 295 296 296 297 297 298 299 299 299 299 299 299 301 300 300 300 300 300 301 301 301 302 301 301 300 300 300 299 301 302 302 302 302 301 301 301 301 302 302 303 305 304 304 303 303 302 301 301 300 299 300 299 299 298
298 290 289 286 292 287 286 285 284 292 297 303 301 293 298 300 300 300 298 295 298 298 297 297 297 298 298 296 295 295 295 295 296 296 297 297 298 298 299 299 299 299 300 300 300 300 300 299 300 300 301 301 302 301 302 301 299 299 299 300 302 303 302 302 302 301 301 302 301 302 301 301 302 304 304 303 302 301 301 300 300 299 299 299 298 297
298 295 295 289 293 290 288 290 296 300 301 303 303 300 301 302 303 301 300 298 298 298 300 298 297 298 298 296 295 295 294 296 296 297 296 297 298 298 298 300 300 299 299 299 299 300 300 299 299 300 300 301 301 301 301 301 300 300 300 301 302 301 301 301 301 301 300 300 300 301 300 301 302 304 303 304 302 301 300 300 300 298 298 298 297 297
300 299 299 295 292 297 298 298 300 300 301 301 303 303 301 302 303 303 301 299 299 299 299 298 298 297 297 297 295 295 295 296 296 297 297 298 298 299 299 299 299 299 299 299 299 299 299 299 300 299 299 300 301 301 302 301 301 300 301 302 302 301 301 301 301 301 300 299 300 300 299 300 300 301 303 305 302 301 301 300 299 298 298 297 297 297
301 302 299 293 296 293 287 298 297 298 300 301 301 302 303 303 301 301 300 299 299 299 299 299 299 297 297 296 296 295 296 297 297 297 298 298 298 299 299 298 299 299 299 298 299 299 299 299 298 298 299 299 300 301 301 302 301 301 302 302 301 302 301 300 300 301 300 300 299 300 300 301 299 300 302 304 302 301 301 300 300 299 297 297 296 296
295 303 297 297 295 291 290 295 298 300 300 301 301 300 300 301 301 301 301 301 300 300 300 299 298 297 297 296 297 296 296 297 297 297 298 298 298 298 298 298 298 298 299 300 300 300 299 299 298 298 298 298 299 300 301 301 301 301 302 302 301 301 301 301 300 300 299 299 299 299 299 299 293 297 299 302 301 300 300 300 300 299 296 296 296 296
300 302 292 296 292 294 296 297 297 299 299 299 301 301 301 301 301 301 301 300 300 298 298 298 298 298 298 298 298 297 297 297 299 299 298 298 298 297 297 297 297 297 298 298 299 299 298 298 298 298 298 298 299 301 301 301 302 301 302 302 302 302 301 301 299 301 300 299 299 298 299 299 298 298 298 301 301 300 298 298 300 300 299 297 295 294
299 294 297 294 289 289 290 293 297 290 290 296 299 300 300 301 301 300 300 299 299 298 298 297 298 300 299 299 299 299 298 298 299 299 298 297 296 296 295 295 295 296 297 299 300 299 299 300 299 299 298 298 300 300 301 301 302 302 301 301 301 301 301 301 300 299 299 299 299 298 299 300 298 298 298 298 300 298 296 289 288 291 298 296 290 288
297 297 296 291 290 290 296 298 299 298 297 298 299 300 301 301 300 299 298 299 299 300 299 299 298 298 298 299 300 300 299 299 299 298 296 296 295 296 296 296 296 296 297 298 298 298 298 299 299 299 298 298 299 299 300 300 301 302 302 301 301 301 301 300 299 298 298 298 298 297 299 299 298 299 298 298 298 298 298 296 295 289 288 289 290 289
Wind_Speed
10 13 14 15 13 15 17 16 17 18 13 13 13 13 14 13 12 14 16 17 17 15 14 14 12 12 10 8 5 4 5 5 11 5 8 12 13 12 12 10 10 10 10 7 3 4 2 2 2 4 6 6 7 8 6 5 5 5 4 6 6 5 3 2 3 2 2 2 2 2 2 2 2 3 0 2 2 2 2 3 4 4 6 5 2 3
13 13 16 16 17 16 18 16 16 19 19 14 12 12 12 14 12 12 14 19 17 13 14 14 14 13 10 8 7 5 5 6 5 7 16 18 17 13 12 12 11 10 7 6 6 8 8 8 8 6 5 6 9 8 8 9 9 9 10 9 6 3 2 4 3 1 1 1 2 3 2 1 1 1 0 1 2 2 2 4 4 4 4 3 2 3
14 16 15 17 16 16 15 17 16 19 17 16 12 10 12 11 12 13 14 19 16 15 12 14 15 13 11 10 9 10 11 14 17 17 14 15 16 12 10 10 11 10 7 8 9 9 9 10 11 9 8 7 7 8 9 8 8 8 7 5 4 4 3 4 3 3 3 3 3 3 1 1 0 3 2 3 2 2 2 3 3 3 3 3 4 4
14 15 17 17 16 17 16 16 16 18 15 12 11 9 11 9 11 10 13 20 16 10 10 14 17 12 12 9 10 8 9 13 16 15 14 13 15 14 12 11 11 10 9 10 9 9 9 10 9 9 9 8 9 11 11 10 9 7 6 5 5 4 3 3 2 2 2 3 1 2 2 1 1 0 2 2 2 3 3 3 4 4 3 5 6 6
14 11 15 17 17 18 18 16 16 14 12 13 13 11 10 13 14 13 8 10 12 16 14 16 13 11 10 11 9 9 9 11 9 10 11 11 11 11 12 12 12 11 9 10 10 9 9 10 10 10 9 9 9 10 10 10 9 7 10 9 5 5 5 4 4 3 2 3 3 1 1 1 1 2 2 1 2 2 2 3 4 5 6 6 6 6
15 15 16 18 18 19 19 16 17 14 12 11 14 15 11 15 13 15 14 14 10 12 16 14 10 10 12 11 11 10 9 11 9 8 8 8 8 9 11 11 11 10 10 10 10 10 9 9 9 9 10 10 8 9 9 8 7 9 9 10 10 7 6 6 5 4 4 3 3 2 2 2 1 2 2 3 3 3 4 4 3 4 6 6 5 6
12 15 17 19 19 19 19 16 16 16 12 10 12 17 18 15 13 14 17 14 11 12 13 11 11 7 10 12 13 11 11 12 9 8 8 7 6 7 8 9 9 9 9 10 10 10 10 10 10 10 10 9 9 9 7 7 9 10 8 8 8 6 6 8 8 8 5 3 4 4 3 2 2 3 2 2 2 3 3 3 4 3 2 5 6 6
13 17 17 18 20 18 17 16 15 18 13 11 10 16 16 15 14 13 18 13 8 10 12 13 10 9 12 14 17 16 15 12 11 8 7 7 8 8 9 9 9 8 9 9 10 11 11 10 10 10 10 9 9 8 8 8 8 9 9 9 9 7 7 7 8 8 7 6 6 6 4 4 4 2 2 2 3 3 3 4 3 3 3 3 4 3
15 15 18 19 19 16 16 15 14 18 15 10 13 15 15 16 15 16 16 13 11 10 13 14 17 11 7 11 19 17 14 13 12 9 8 8 9 8 9 8 9 9 10 9 9 10 10 10 10 9 9 9 9 8 7 7 8 8 9 9 9 9 8 9 9 8 8 7 5 4 4 5 4 5 5 5 4 4 3 4 3 5 5 3 4 4
12 16 16 15 15 14 13 16 17 18 15 14 13 12 13 15 15 13 12 14 10 9 10 13 13 11 9 12 14 14 13 14 13 11 9 10 9 9 8 8 8 8 9 10 10 9 10 9 9 9 9 10 8 7 8 8 8 8 8 10 11 12 9 9 10 10 10 9 8 8 7 7 5 5 5 5 5 5 5 5 1 4 6 5 5 3
14 14 17 13 14 13 15 17 17 15 16 12 17 12 13 12 9 11 10 10 9 8 12 15 17 14 6 11 14 16 15 15 15 11 10 10 10 10 9 8 7 8 9 8 9 9 9 8 9 9 10 9 8 7 8 8 8 7 8 9 9 9 8 9 9 10 10 9 9 8 9 9 10 9 8 6 5 6 6 5 3 2 4 5 4 4
15 17 12 10 14 12 14 15 16 14 16 17 11 13 11 9 9 9 7 8 6 9 14 17 16 18 12 9 8 8 10 17 17 16 15 13 12 10 9 8 8 8 8 8 8 9 8 9 9 9 9 9 9 8 8 6 5 6 6 6 8 7 7 7 8 9 10 10 9 11 10 10 9 9 7 8 9 8 9 6 6 6 4 3 3 3
16 15 12 14 12 15 14 13 14 15 14 15 13 11 11 9 6 8 10 10 12 10 13 18 14 9 10 2 6 10 15 15 13 13 14 13 12 11 10 9 8 8 9 8 8 7 8 8 8 9 9 9 9 8 8 8 6 5 7 8 8 9 7 7 6 7 8 9 9 10 11 12 12 12 12 10 8 9 8 8 7 6 5 5 5 4
13 16 19 16 16 14 14 14 12 15 14 16 15 12 12 12 10 7 10 6 9 14 15 16 17 5 7 8 8 12 15 14 14 14 14 13 12 11 10 9 8 9 9 9 8 8 7 7 7 8 8 9 7 8 8 8 7 7 7 8 8 8 6 6 6 6 7 7 7 8 9 9 8 9 9 9 10 10 9 8 8 7 6 6 5 5
13 15 16 15 11 14 16 14 12 11 13 14 14 13 11 12 9 7 10 9 9 8 12 12 9 6 9 3 7 13 14 14 13 13 13 12 12 11 10 10 9 9 9 8 8 7 7 7 8 7 8 7 7 8 7 7 7 6 6 8 8 7 6 5 5 5 6 6 7 7 7 7 7 7 8 7 7 9 10 10 10 8 7 7 8 8
19 12 12 16 12 17 18 17 14 15 12 13 14 13 12 13 9 10 5 7 7 9 8 6 3 3 6 11 10 13 14 14 14 14 14 13 11 10 9 9 8 8 8 8 7 7 7 7 7 7 7 7 7 7 5 6 5 5 6 6 8 9 9 8 5 4 4 6 6 5 5 6 6 7 7 7 7 8 9 10 10 10 8 7 8 7
14 14 15 19 18 18 21 17 17 14 10 12 14 15 14 12 13 2 3 8 2 2 4 7 7 9 7 6 11 13 13 14 13 14 14 13 12 11 9 9 9 8 8 7 6 6 7 7 7 7 7 6 6 5 5 6 7 7 6 6 6 8 8 7 6 4 8 6 6 7 1 6 5 5 8 8 10 10 9 9 9 9 11 11 9 7
9 12 16 18 21 15 17 18 18 16 12 9 14 13 11 13 13 5 4 4 5 6 3 8 12 10 10 4 8 13 13 13 13 12 13 13 12 12 9 8 8 8 7 7 7 7 7 6 7 6 6 7 6 6 5 7 6 5 3 4 7 8 8 10 11 7 7 8 7 9 11 6 8 6 8 9 10 10 10 9 9 10 10 10 10 10
13 11 14 17 16 16 15 17 18 19 19 15 13 8 10 7 11 6 2 6 8 7 4 7 13 11 8 9 12 15 14 14 13 13 11 11 11 12 11 10 9 7 6 6 6 6 6 6 6 6 7 7 7 6 6 6 5 5 5 8 8 8 9 8 6 8 5 5 6 7 10 10 9 8 8 8 8 8 9 10 10 11 10 10 10 9
11 9 10 16 17 15 13 14 13 14 17 21 12 14 12 9 11 8 6 7 7 5 6 6 8 5 5 11 17 17 16 16 14 12 11 11 11 10 10 8 8 7 6 6 6 6 6 5 5 6 7 8 8 7 6 6 6 7 6 7 8 5 6 7 9 8 10 8 8 9 9 10 10 10 9 8 8 9 10 10 10 10 10 11 9 9
7 8 7 12 18 14 14 12 14 14 16 17 15 13 12 8 7 9 7 11 8 5 7 5 5 5 4 2 15 15 15 16 15 14 12 11 10 11 10 9 7 7 6 6 6 5 5 4 6 8 7 8 8 6 7 8 9 8 9 9 9 11 10 8 9 6 8 9 9 9 9 10 10 11 10 10 8 8 9 8 8 9 9 10 10 11
4 8 5 11 14 14 14 15 16 17 14 13 13 12 14 14 11 12 10 11 13 8 5 5 4 5 3 5 3 14 14 14 14 14 12 12 11 11 9 9 8 7 7 6 6 5 2 4 8 6 6 8 6 8 8 7 8 9 8 8 8 8 9 9 8 9 9 7 8 10 10 9 9 9 10 11 9 9 10 10 8 10 10 10 10 11
6 4 7 7 14 14 15 16 18 18 18 19 17 14 14 11 10 10 10 9 12 10 10 3 6 2 5 6 5 13 14 15 15 14 13 12 12 10 10 10 8 7 7 6 6 5 5 7 6 6 8 8 8 7 7 7 8 8 8 8 8 9 10 10 10 9 10 9 9 9 9 10 9 10 11 12 10 11 11 11 11 10 11 11 11 10
4 3 10 10 11 14 18 15 18 20 20 17 14 14 14 13 14 10 8 3 4 6 7 4 3 2 5 8 2 12 15 13 12 14 15 12 11 11 11 10 9 8 7 7 6 5 5 7 7 7 7 6 6 6 7 8 8 8 7 8 9 10 10 10 10 9 9 9 9 10 10 11 11 12 11 11 9 12 11 11 10 10 11 11 11 12
6 6 10 10 9 11 12 13 15 17 16 12 13 15 17 15 16 13 9 3 2 7 11 4 5 3 3 0 8 14 16 16 15 14 14 13 11 11 11 9 9 9 8 9 8 7 8 8 8 6 5 6 6 8 6 8 7 8 9 9 10 9 9 10 9 10 11 10 11 11 11 12 11 12 12 11 10 12 12 11 11 11 12 11 12 12
6 6 8 10 12 12 12 14 16 16 17 11 15 18 21 19 15 8 8 6 6 7 16 3 5 8 7 6 13 14 15 15 14 14 13 12 12 11 10 10 10 9 9 9 9 9 8 9 10 11 11 9 11 11 10 9 9 10 10 10 8 9 9 10 9 10 10 11 11 11 12 11 11 12 12 12 11 12 12 12 12 12 11 12 13 13
5 7 8 9 11 11 12 10 9 12 12 17 18 20 17 19 19 12 6 6 6 4 4 4 17 17 13 12 16 16 15 16 15 14 13 12 12 11 11 10 10 9 9 9 9 8 8 9 10 10 9 10 10 10 9 9 9 10 10 10 10 10 10 10 10 11 10 11 11 11 11 11 11 11 11 12 12 12 12 13 12 14 14 12 14 14
5 7 12 12 14 2 6 12 13 16 18 16 13 14 16 17 17 12 6 5 3 3 5 3 22 20 15 14 14 16 15 15 14 14 13 12 12 11 11 12 12 11 10 9 9 9 9 9 8 9 9 9 8 9 8 8 9 11 10 10 9 10 10 9 10 11 12 12 11 11 11 11 10 10 11 11 12 12 12 13 13 13 12 12 13 14
7 4 8 1 4 4 7 5 7 14 11 14 16 14 13 12 15 11 2 6 10 1 6 13 15 18 15 14 14 14 14 14 13 12 12 13 13 13 13 12 12 11 10 9 9 9 9 9 8 8 8 7 8 8 8 9 10 9 9 9 11 10 11 11 11 11 12 12 11 11 11 10 10 11 12 12 11 12 13 13 13 13 13 13 13 11
4 7 5 4 5 9 4 4 7 10 14 13 16 16 12 9 8 8 6 13 12 13 18 19 15 16 15 15 13 11 11 12 10 9 11 13 13 13 13 13 12 11 10 9 9 9 8 9 8 8 8 9 9 10 10 10 10 10 10 10 10 10 11 10 10 11 12 11 11 11 12 11 11 12 12 12 13 13 13 13 13 13 14 14 15 14
8 4 7 6 4 6 7 3 4 4 4 13 14 16 14 1 9 1 16 19 20 17 16 20 20 15 10 13 13 10 10 10 10 11 13 12 13 13 13 12 11 10 10 10 9 9 9 8 8 8 8 9 9 9 9 9 9 9 9 10 10 10 9 9 10 10 10 11 11 11 12 11 12 12 13 12 13 13 14 15 13 13 14 14 14 14
9 2 3 5 6 8 8 8 5 7 12 11 7 10 11 8 7 8 8 7 15 14 18 19 14 11 10 14 11 11 12 13 14 13 11 11 12 13 13 12 11 11 10 9 9 8 8 8 8 8 8 8 8 9 8 8 8 8 9 8 9 8 8 8 8 8 9 9 9 10 12 11 13 13 13 12 13 13 13 13 14 14 14 13 14 13
6 5 4 4 6 6 6 10 10 11 8 5 7 10 8 10 9 9 10 3 15 22 15 9 9 13 18 17 18 15 15 14 13 12 12 12 11 12 12 12 11 10 9 8 8 8 8 7 8 8 8 8 8 8 9 9 8 8 8 9 8 7 7 7 8 9 9 9 10 11 10 11 12 13 12 12 12 11 12 13 14 14 14 14 13 12
8 7 2 5 5 4 2 9 11 7 4 2 4 8 4 8 11 14 10 12 10 5 3 7 17 18 17 16 18 18 16 13 10 7 6 7 9 11 12 11 11 10 9 9 8 8 7 7 6 7 8 7 6 7 6 7 7 6 7 7 8 8 8 9 9 8 9 10 10 11 11 11 12 12 11 11 11 11 12 12 12 11 11 11 12 12
9 7 4 3 2 6 4 6 5 4 3 2 6 4 10 14 17 17 15 13 13 17 21 21 20 19 17 15 17 17 15 14 11 10 9 9 10 10 12 11 10 10 9 9 8 8 8 7 7 7 6 5 6 6 6 7 7 6 8 7 8 8 9 9 9 11 10 10 11 11 11 12 11 12 11 11 10 11 12 11 10 11 10 10 11 12
5 6 3 2 3 4 6 3 5 3 2 1 6 14 15 16 14 18 16 13 12 11 17 20 18 18 19 18 17 16 16 14 11 10 9 10 9 9 9 9 10 9 9 8 8 8 7 7 8 6 5 6 7 7 7 6 5 7 8 8 8 7 7 9 10 9 9 10 9 11 11 12 11 10 11 11 11 11 11 11 11 11 9 8 8 9
11 7 4 2 4 3 3 3 4 2 1 3 8 8 7 5 6 5 8 6 6 9 12 18 19 19 19 18 18 17 16 14 12 9 8 9 8 9 10 10 10 10 9 9 8 8 7 7 7 5 6 6 5 6 6 6 6 6 6 5 5 7 8 8 8 8 8 9 9 11 11 11 11 11 11 11 12 11 11 11 12 10 9 8 9 9
6 6 6 6 4 7 6 6 5 4 6 6 5 9 7 9 10 12 11 5 5 9 13 18 20 20 20 20 19 19 17 14 11 8 8 8 8 10 10 10 10 10 9 9 8 7 8 7 6 5 6 6 6 6 6 5 6 6 5 6 8 8 7 8 8 8 9 9 10 9 10 11 11 11 11 11 12 11 10 10 9 10 10 9 9 10
2 3 3 3 3 4 6 6 5 6 1 5 12 9 7 7 13 12 8 4 8 12 15 16 18 19 19 20 20 17 10 8 9 9 9 10 10 10 11 10 10 10 9 8 8 8 8 6 5 6 7 7 9 7 7 8 8 8 8 8 8 8 8 8 8 9 9 9 8 10 9 9 10 10 10 11 11 10 11 10 9 9 10 10 9 8
9 2 2 1 2 3 4 5 3 3 2 6 13 11 8 7 7 3 5 7 14 16 15 17 18 19 18 17 15 10 7 10 11 11 12 12 11 10 10 10 10 10 9 8 7 7 8 7 7 7 8 9 8 8 8 8 8 7 7 8 8 8 7 7 7 8 7 7 7 8 9 8 9 9 10 11 11 10 10 10 9 9 10 10 10 9
4 2 1 2 4 4 4 3 4 2 3 7 9 10 8 6 5 6 3 6 17 17 16 16 17 16 17 15 10 5 4 7 12 16 13 13 12 11 10 10 10 9 9 8 7 7 7 7 7 8 8 7 7 7 7 6 5 6 7 7 7 7 7 7 7 7 7 5 7 8 9 8 8 8 8 9 9 9 9 9 10 9 9 9 9 9
1 1 2 3 2 3 2 5 4 4 1 3 9 9 9 8 4 3 4 12 19 17 15 16 17 16 14 13 4 8 13 17 17 14 14 13 12 12 11 11 10 9 7 7 6 7 7 7 8 8 7 7 8 8 7 6 6 7 8 7 7 7 7 6 7 8 8 9 9 8 7 7 6 6 6 7 8 8 8 8 9 9 9 8 8 9
3 3 5 3 2 4 1 4 3 4 3 4 8 6 1 3 2 8 14 15 15 17 18 16 14 14 11 10 13 16 18 17 17 16 14 13 13 13 12 11 10 9 8 7 8 11 8 7 7 7 7 7 7 7 7 7 7 7 6 5 5 6 7 6 7 8 7 6 8 6 7 6 5 5 5 6 7 7 7 7 8 9 9 8 8 8
5 1 3 1 2 2 4 3 1 3 8 6 7 3 3 6 10 13 14 16 14 14 15 13 13 12 12 15 16 16 16 18 17 16 15 13 13 12 12 10 10 11 9 7 9 9 10 9 8 7 7 7 7 7 6 6 7 6 6 7 6 5 5 5 7 6 5 4 5 4 6 7 5 5 4 6 7 7 7 7 8 8 8 9 9 8
8 5 3 6 5 1 2 4 6 9 7 4 6 13 12 13 12 14 13 15 17 14 14 12 14 14 15 17 17 17 17 15 16 16 15 14 13 12 12 13 12 10 9 9 9 9 9 8 8 7 7 7 7 6 6 6 6 7 8 6 7 7 7 7 6 7 8 9 8 6 8 6 4 3 5 4 5 6 7 7 7 7 8 8 8 9
9 15 12 13 9 12 11 8 8 8 8 10 11 11 13 13 13 13 16 15 14 15 14 14 16 16 16 16 17 14 15 16 16 15 14 14 13 13 11 11 10 9 10 9 9 9 9 8 8 7 7 7 6 5 5 6 6 7 5 6 5 6 7 7 6 6 8 7 6 6 8 8 7 4 6 3 4 5 6 8 7 7 8 7 8 8
9 9 7 10 14 8 5 2 9 11 11 12 13 13 13 13 13 13 14 14 15 15 15 16 17 17 17 15 14 17 17 16 16 15 14 13 12 11 13 11 10 9 8 9 8 8 8 8 8 8 7 7 5 5 5 5 4 4 5 6 7 7 7 6 7 5 6 6 7 6 6 3 4 4 4 3 4 5 5 6 5 6 7 7 7 7
9 12 12 11 9 7 9 11 11 11 11 12 11 12 14 15 15 14 13 13 14 16 17 17 17 17 15 15 16 16 17 16 16 15 14 13 12 12 11 11 10 10 8 6 6 7 8 8 8 7 7 6 6 6 5 5 5 7 6 6 7 6 6 5 7 6 7 7 6 7 7 7 7 8 6 4 5 4 4 5 5 5 5 6 6 6
7 6 5 8 11 13 14 11 11 12 12 11 12 12 12 12 14 15 16 17 17 18 18 17 14 15 15 17 17 16 17 16 15 15 14 13 12 11 11 10 10 10 8 7 6 7 8 8 8 7 7 6 6 5 5 5 6 7 6 5 6 6 6 5 6 6 6 6 6 8 6 5 6 4 5 5 5 5 4 4 3 3 5 4 4 3
10 11 13 14 13 11 10 13 15 11 9 10 12 14 14 14 15 17 17 18 18 19 18 17 15 14 16 16 16 16 16 15 15 14 14 13 11 12 12 11 10 10 9 7 7 9 9 7 7 7 6 6 5 6 6 6 5 5 5 5 6 6 4 4 6 7 6 4 5 6 6 5 6 7 8 8 3 5 4 5 6 6 3 3 3 4
8 9 7 6 8 9 13 17 9 10 13 12 13 14 15 14 15 17 17 18 18 17 17 18 18 18 16 15 14 15 15 14 15 15 13 12 12 11 11 11 11 10 10 9 9 9 8 7 7 6 6 5 5 6 6 5 5 4 4 5 6 5 5 6 5 5 6 8 5 5 5 6 8 9 7 6 6 5 4 3 4 8 8 7 4 3
Wind_Direction
168 203 206 209 211 205 213 215 220 236 230 214 213 208 225 226 223 225 160 169 182 194 201 202 193 152 155 156 127 86 54 17 89 108 111 128 109 99 99 96 93 84 79 86 100 55 348 30 355 22 19 11 42 38 40 71 76 56 78 106 79 84 93 46 55 36 355 359 298 292 289 342 58 140 317 70 94 170 136 128 185 210 212 223 209 154
206 211 215 211 213 212 208 217 221 238 250 239 215 213 223 227 231 191 176 160 178 212 181 207 145 152 129 108 103 98 111 79 51 101 80 96 98 99 101 97 89 84 83 88 71 57 48 35 52 57 53 46 52 48 51 49 48 53 47 52 62 56 70 74 53 49 222 237 322 333 38 8 30 38 164 197 178 204 194 194 192 190 208 239 214 156
209 216 213 213 212 221 214 213 220 235 243 254 258 203 229 218 249 189 191 164 171 210 181 185 138 132 116 102 79 57 71 61 57 55 67 81 95 94 86 92 97 96 89 79 70 68 54 43 38 35 30 36 37 48 44 38 45 50 50 48 46 49 34 55 25 352 15 25 4 332 10 271 179 131 201 197 218 205 217 200 189 208 221 227 235 199
205 216 212 211 211 220 219 214 214 230 238 243 244 244 211 213 214 205 201 162 176 198 185 171 136 130 122 109 98 78 75 74 63 64 69 71 86 98 110 104 102 96 91 75 71 67 60 53 48 46 43 40 37 39 35 26 28 35 35 40 46 53 35 47 74 0 351 350 348 280 290 347 281 96 189 222 193 230 225 247 226 219 214 222 234 219
210 203 204 212 209 212 220 210 214 221 222 230 243 240 216 216 204 241 172 169 163 188 228 163 126 143 144 137 134 106 94 94 92 80 78 85 85 85 85 83 85 91 84 84 81 74 67 58 52 47 44 38 40 37 34 29 27 20 19 15 34 38 31 49 26 4 22 334 332 316 319 234 254 166 252 221 230 247 251 252 219 208 204 218 230 238
210 208 191 213 209 208 217 214 211 214 226 214 231 243 235 226 200 229 148 165 179 197 218 206 132 165 155 162 149 140 117 102 102 106 91 87 87 81 81 83 84 80 79 87 84 79 76 75 62 54 49 44 38 39 32 27 26 28 26 22 18 27 25 14 23 22 359 345 307 312 305 307 219 254 188 254 260 218 215 234 235 209 208 217 229 241
217 198 201 202 210 206 213 221 204 213 221 217 210 236 252 254 218 217 142 175 191 214 199 207 164 173 176 186 158 152 126 110 101 106 102 87 85 83 80 84 81 86 91 87 79 69 69 67 66 60 53 49 44 33 32 31 26 27 27 22 20 27 31 17 7 1 360 352 336 331 329 315 320 313 258 274 283 288 271 261 264 272 220 212 226 238
214 200 205 201 206 207 208 216 202 203 218 221 208 222 239 254 243 218 150 180 199 204 231 210 210 206 195 188 156 149 128 122 119 116 111 93 89 87 82 79 85 91 92 86 79 77 72 67 63 61 56 53 48 41 31 24 23 26 19 21 19 19 26 21 4 356 1 351 352 336 333 343 330 327 305 291 281 260 251 272 276 265 263 262 273 292
199 208 207 199 205 206 210 209 202 202 216 217 210 208 224 242 252 236 172 173 213 202 224 217 197 230 203 177 150 157 147 139 132 128 123 113 97 91 90 87 85 84 80 76 78 76 74 73 70 68 64 54 47 43 38 28 26 17 15 24 24 17 17 13 6 360 351 346 341 330 347 345 339 339 337 330 317 313 314 287 315 318 306 283 272 243
187 221 208 208 200 210 204 201 218 197 209 221 236 184 222 231 252 268 217 191 182 207 224 222 195 228 199 133 146 165 169 161 141 139 133 121 112 107 103 96 98 96 85 78 73 71 72 70 66 63 65 59 52 39 40 35 31 23 16 21 26 20 16 8 3 358 353 351 354 348 351 344 339 342 338 330 322 316 318 306 21 343 303 305 297 280
181 201 241 195 207 211 202 205 216 198 209 216 240 222 207 228 244 264 240 203 190 213 227 218 202 215 201 171 166 178 185 157 139 140 135 125 120 118 113 113 109 90 83 79 71 67 66 67 64 60 55 55 51 48 46 39 32 25 20 20 31 26 14 4 2 353 358 356 357 355 357 351 348 346 335 329 325 321 311 315 320 219 244 275 291 315
213 179 231 219 201 207 206 202 207 208 194 220 224 235 195 208 233 254 233 172 208 223 228 230 211 203 228 173 178 193 173 142 145 146 143 136 131 126 121 116 103 88 83 77 70 61 55 55 55 54 52 46 43 41 45 48 46 31 28 28 25 31 26 20 5 356 359 1 3 357 357 352 351 345 337 333 328 325 319 325 318 316 308 313 321 309
218 200 199 215 196 213 190 219 191 210 192 211 226 223 203 188 199 224 228 193 206 217 216 226 209 188 229 117 163 126 121 123 132 143 140 135 133 130 123 114 106 91 81 75 68 59 53 47 42 45 46 43 38 36 38 37 31 27 24 24 29 32 22 25 17 5 358 359 1 359 358 1 358 354 347 337 335 339 333 329 327 331 325 318 308 310
215 210 183 216 182 201 215 208 186 202 192 208 211 216 206 200 194 219 218 227 215 219 233 222 208 182 85 63 60 109 115 116 124 132 131 127 123 122 118 112 100 87 77 71 59 55 51 47 48 44 43 43 39 40 40 38 29 27 23 22 21 30 15 25 17 11 11 11 5 4 2 358 354 349 341 342 342 340 338 339 331 326 317 311 303 305
197 202 195 183 201 184 226 224 202 198 187 209 213 216 215 207 204 202 219 214 225 235 222 235 216 139 173 114 117 107 110 116 122 125 121 118 113 109 104 96 91 84 79 67 63 58 52 51 49 51 48 43 39 41 43 42 35 27 20 21 26 11 31 33 28 30 27 5 9 14 7 353 347 344 341 337 337 337 340 339 334 329 321 315 314 314
208 225 171 190 212 184 217 217 219 188 198 207 213 224 207 209 201 220 195 238 218 228 230 229 51 29 84 124 112 117 122 124 128 125 125 120 119 113 103 97 89 83 73 68 63 59 55 51 53 54 54 48 43 40 30 45 51 36 24 24 23 18 9 10 337 27 25 36 23 358 1 2 354 349 340 337 340 341 341 339 333 333 332 321 316 319
191 214 189 176 210 200 208 208 218 201 203 184 215 220 206 197 229 211 178 233 70 329 235 91 122 82 120 116 130 127 129 138 143 138 128 126 119 112 103 99 92 81 76 75 68 61 57 57 56 58 57 56 51 45 28 41 43 40 23 15 28 27 359 18 10 31 21 42 8 325 348 28 350 360 348 344 345 345 342 337 333 333 335 334 333 322
206 209 201 180 197 205 201 211 220 216 217 182 216 225 197 202 233 214 223 162 237 243 197 139 135 152 150 152 161 147 144 150 148 142 138 124 123 112 107 104 100 95 88 87 79 67 66 63 60 66 73 63 58 50 42 39 35 37 20 339 31 44 18 14 349 36 19 20 10 353 353 3 14 1 6 357 350 348 340 339 340 338 335 336 332 333
223 208 199 182 194 197 190 210 221 230 209 221 205 179 212 177 222 205 228 213 203 210 211 116 144 156 178 137 163 162 160 163 160 145 141 136 123 113 111 107 103 97 88 80 71 66 62 66 64 65 67 65 61 58 48 48 39 32 7 23 33 29 24 9 343 332 39 32 15 2 355 4 0 12 5 2 350 344 343 343 342 338 331 326 330 326
209 230 184 173 191 193 189 203 214 210 194 222 201 194 212 237 217 220 191 241 219 219 213 145 186 174 173 152 171 170 164 156 153 147 142 131 124 119 113 111 102 99 92 82 81 74 70 69 79 76 68 58 55 50 45 48 37 34 31 29 21 15 46 17 343 28 4 32 22 9 3 357 3 5 0 352 359 352 348 344 339 336 334 331 328 329
200 236 215 179 192 187 199 196 214 204 197 196 213 198 189 234 226 238 184 211 214 230 219 137 195 164 58 143 173 167 162 155 150 147 137 133 126 117 113 109 107 102 96 86 82 85 76 77 79 66 53 55 54 49 48 46 41 28 27 30 22 13 17 19 4 1 48 3 19 9 6 5 357 7 350 357 5 355 346 341 344 340 333 334 338 339
217 189 230 181 184 197 207 193 212 212 213 198 212 212 201 201 218 206 223 192 218 214 216 178 152 96 70 352 251 155 149 145 143 136 133 126 117 112 109 110 113 110 95 97 91 90 148 97 67 61 63 58 50 46 50 54 50 40 35 34 32 27 19 20 14 359 29 16 21 8 8 10 1 353 360 356 358 358 352 345 351 348 346 343 341 337
222 169 224 197 195 197 208 189 209 220 214 207 196 216 214 197 209 217 226 203 212 226 239 276 109 129 360 333 336 142 146 142 139 136 128 122 117 116 114 115 119 111 107 101 102 108 88 64 64 67 66 68 57 48 43 49 46 42 32 33 38 30 27 22 11 12 28 15 17 12 6 2 6 4 3 1 355 0 357 356 351 351 349 347 345 344
156 224 203 203 193 212 213 201 188 219 226 230 212 208 218 225 193 220 234 235 216 215 215 76 77 19 4 340 52 121 131 131 127 127 124 121 121 120 122 124 118 116 107 108 106 91 90 99 80 63 68 69 69 62 57 47 46 41 33 30 35 31 26 23 14 18 27 16 11 18 10 9 6 3 6 360 359 358 0 356 353 356 353 353 349 346
177 204 213 189 197 194 202 196 193 202 216 215 210 201 224 240 226 208 224 177 238 220 237 146 150 155 137 66 118 116 126 130 126 123 125 126 126 124 122 119 118 112 113 105 99 96 93 93 95 96 94 89 74 72 54 58 54 50 37 34 31 26 30 18 19 25 16 17 16 14 14 11 10 1 4 1 358 357 0 357 1 1 354 356 354 351
200 168 215 194 191 191 194 197 197 188 204 207 216 210 207 222 228 210 218 191 217 220 234 164 88 101 122 103 126 125 128 126 126 127 126 125 125 125 123 124 117 114 108 100 90 70 52 45 35 32 26 39 36 36 39 30 32 39 42 34 19 25 33 25 12 16 21 23 14 12 11 11 6 3 2 356 2 3 360 359 5 3 1 357 358 354
187 188 208 210 205 199 206 210 199 191 197 212 201 216 207 214 234 235 215 223 217 200 58 106 143 140 147 148 143 141 137 133 134 133 130 129 125 123 125 123 123 118 108 101 94 89 75 54 42 38 34 30 37 41 36 36 33 33 34 29 28 24 25 23 12 22 20 21 20 9 9 10 6 5 3 360 4 2 0 4 7 4 4 1 360 360
193 203 206 220 231 70 334 215 205 216 199 210 210 213 218 211 234 240 210 232 254 218 84 106 140 140 159 156 150 146 140 136 136 134 130 131 130 128 125 123 119 111 101 98 91 83 75 69 62 54 42 35 40 40 39 38 35 35 31 28 25 28 34 23 19 20 20 22 16 11 7 10 4 2 5 5 3 3 4 5 5 8 5 3 2 1
183 221 190 219 252 279 234 347 273 228 227 197 209 216 233 216 210 229 112 60 67 340 140 145 141 133 147 153 150 143 138 136 135 131 134 132 127 128 126 123 114 106 105 94 86 79 80 76 68 62 53 53 44 40 39 38 37 32 32 32 29 31 31 26 21 20 23 21 13 11 9 7 4 2 9 2 5 8 7 6 6 6 5 5 4 3
190 209 140 213 258 216 239 250 337 254 211 217 206 213 229 241 229 215 150 93 97 111 128 140 136 129 142 146 139 130 129 129 126 130 130 135 135 130 126 118 112 108 102 97 89 85 77 74 71 63 60 50 45 38 35 38 35 28 28 30 32 28 34 33 25 24 22 19 13 12 11 8 7 5 6 5 3 8 8 6 7 5 4 5 5 5
219 143 122 176 197 245 198 167 215 311 284 226 207 208 214 355 20 57 95 96 96 102 119 119 122 124 131 135 131 126 124 129 134 145 141 134 134 131 122 116 111 111 108 100 97 87 78 77 72 68 59 53 46 38 39 41 35 31 36 32 28 31 32 35 33 29 23 19 15 14 11 10 9 5 9 4 4 5 5 6 5 6 6 3 4 4
198 126 190 185 190 207 171 99 130 79 56 37 43 30 33 44 74 58 81 95 113 124 123 121 122 134 134 130 115 123 137 141 142 141 135 133 131 128 118 115 115 111 106 99 92 88 86 74 67 62 59 54 47 42 41 40 41 37 33 35 38 37 33 46 41 32 29 22 20 19 17 14 10 10 8 7 7 6 6 7 6 6 4 2 2 5
164 158 161 186 202 189 163 147 117 105 92 70 22 6 18 67 93 79 77 96 129 138 139 154 162 142 139 137 134 141 143 143 138 140 135 132 130 122 116 117 116 111 103 100 91 89 78 77 69 62 56 52 47 49 40 39 41 39 26 31 29 30 34 43 41 30 31 27 27 21 19 17 16 11 7 7 6 6 13 9 10 8 3 360 1 4
159 145 183 224 209 115 85 116 114 102 147 137 36 314 359 88 87 81 53 59 54 62 65 101 132 137 138 142 139 144 142 141 137 125 115 117 113 111 116 117 114 113 109 100 99 90 86 78 73 69 63 55 59 61 52 45 43 39 39 30 33 22 21 28 43 35 29 25 23 28 23 19 19 12 10 8 8 9 10 12 13 11 6 358 359 5
187 184 165 59 221 140 93 110 115 154 128 61 285 328 113 98 86 84 78 70 80 86 94 107 128 138 143 137 135 135 134 131 133 130 119 103 105 114 120 119 116 112 110 111 108 101 94 90 76 68 62 71 62 48 50 51 41 42 43 31 32 27 23 29 22 28 27 27 24 25 20 21 18 13 10 9 12 14 12 10 12 14 12 6 4 2
164 180 121 96 44 116 139 149 155 122 341 248 87 73 82 89 92 84 67 52 66 93 115 122 134 136 138 134 132 131 131 125 107 89 88 102 111 115 113 110 119 118 114 113 108 103 94 81 75 73 70 55 55 57 54 53 46 45 45 37 31 29 25 30 30 24 24 27 31 26 23 17 16 10 13 10 12 17 16 10 12 11 8 10 7 7
187 172 168 122 133 169 147 119 69 176 125 129 153 133 150 140 181 137 107 61 85 117 129 131 134 134 133 132 132 131 125 115 109 111 116 116 118 116 119 123 122 120 119 113 108 102 96 90 83 76 74 62 48 64 51 40 53 54 44 46 39 31 34 31 33 23 27 30 22 31 26 20 12 11 11 9 11 15 22 15 10 8 0 8 15 14
141 181 147 131 196 205 139 122 143 158 191 209 209 152 71 67 75 103 99 105 115 126 135 135 136 137 136 136 137 134 133 116 117 128 135 127 124 127 126 126 125 122 120 116 117 112 98 94 94 86 68 76 61 45 58 43 39 56 39 38 43 34 27 23 33 29 29 19 27 29 33 24 16 12 10 12 10 7 19 23 16 9 359 360 13 18
92 16 10 214 176 179 178 166 167 169 80 145 169 172 117 122 126 122 102 125 162 146 146 143 140 143 144 144 142 147 141 121 134 144 149 141 136 137 133 127 125 126 123 115 108 97 89 78 79 79 73 68 60 42 37 43 40 38 42 33 35 36 29 18 13 33 30 20 22 31 36 29 20 13 13 13 9 11 15 20 19 13 4 360 8 21
80 44 17 210 183 227 183 179 134 33 74 151 154 156 139 157 161 211 231 191 171 161 156 151 147 147 147 146 151 163 152 137 149 151 150 145 143 136 130 130 131 124 115 122 122 119 125 135 113 81 66 63 59 52 49 44 46 40 36 33 34 28 28 17 21 35 32 22 17 35 33 31 26 15 18 16 11 11 18 12 15 20 14 7 5 10
79 78 87 227 190 164 125 79 95 96 67 124 153 154 155 169 180 206 208 126 158 158 159 154 149 148 150 153 172 168 92 115 134 140 144 141 138 133 134 140 132 131 126 125 142 142 102 83 68 71 79 85 81 68 55 53 48 47 49 46 32 26 20 24 12 19 35 26 25 34 35 42 32 22 23 17 14 16 19 17 12 7 20 14 8 7
125 83 58 283 213 159 132 113 78 98 54 145 168 160 166 180 199 190 49 125 139 147 153 154 151 152 155 167 143 98 110 120 132 136 138 140 141 139 139 139 138 129 138 141 126 94 92 90 85 84 74 66 69 73 64 49 46 43 45 39 36 27 13 15 31 25 20 20 20 28 42 38 39 30 25 16 14 16 22 22 20 9 8 15 12 11
104 133 190 175 99 65 21 92 142 137 196 249 138 89 56 256 92 107 120 123 143 143 149 147 149 149 158 135 114 119 120 128 135 137 137 140 141 142 139 133 138 146 156 187 187 116 110 96 91 78 73 72 71 70 69 58 44 48 41 38 50 45 9 5 32 30 25 19 29 11 40 36 46 38 31 20 8 13 20 24 22 16 6 8 10 15
8 152 129 73 303 140 169 148 47 53 128 182 170 143 96 88 128 126 128 128 137 145 143 141 143 149 136 125 125 125 129 131 135 137 140 142 142 140 137 142 158 165 173 128 100 103 101 101 99 89 76 62 54 56 53 51 56 38 45 26 34 47 19 1 51 29 11 27 30 21 49 25 32 60 44 28 7 14 13 23 28 17 7 5 7 10
358 54 30 105 0 13 85 104 136 125 109 87 72 94 106 117 124 128 128 133 140 141 142 137 135 132 135 129 131 133 133 137 137 143 140 141 141 144 156 175 139 119 108 109 108 108 110 103 96 90 85 79 65 51 53 46 47 44 32 31 40 34 19 359 17 40 19 18 4 7 46 25 12 54 61 37 14 13 14 27 40 18 11 8 5 6
115 111 101 87 82 87 61 60 88 98 106 103 101 109 113 115 127 133 134 136 136 138 142 141 138 133 136 138 135 137 136 141 141 139 140 143 148 155 146 112 112 123 113 120 119 105 99 95 89 83 81 74 73 71 63 62 38 41 41 29 35 36 35 8 350 58 48 25 340 8 31 28 6 16 86 51 27 22 25 17 36 28 12 11 9 3
154 168 120 106 137 110 84 31 103 109 112 110 113 114 110 117 126 130 133 131 135 138 138 142 138 137 139 143 139 136 139 140 138 139 141 146 151 144 116 121 122 125 120 97 106 128 120 107 97 93 87 81 66 55 55 75 90 69 51 43 29 42 40 17 345 43 65 29 351 10 30 27 12 4 78 60 38 31 29 25 39 39 24 15 9 8
101 108 110 129 127 105 131 129 116 107 108 114 118 124 124 125 126 125 127 130 134 136 137 138 136 137 143 139 140 137 137 141 142 148 150 147 138 127 129 127 123 113 111 114 109 95 94 94 93 89 83 79 70 65 51 33 29 54 48 39 47 36 39 29 351 12 56 45 357 349 14 22 5 7 27 88 46 43 21 35 29 61 43 14 14 9
104 126 82 107 105 111 115 118 124 121 116 120 124 122 126 127 125 126 127 127 130 131 133 136 145 145 142 137 139 140 137 145 150 147 140 131 129 126 124 124 120 119 122 129 113 104 98 102 98 91 83 76 74 74 70 60 32 37 47 24 46 42 40 27 4 354 37 55 31 344 355 16 15 23 30 73 93 67 48 8 12 30 72 57 22 16
85 93 111 110 121 141 150 150 144 134 139 135 129 127 125 126 125 127 131 131 132 135 139 140 138 137 135 140 144 145 147 151 160 153 131 127 130 127 126 124 126 127 125 114 104 98 96 89 89 91 88 80 75 71 62 52 60 48 35 24 46 41 48 49 22 8 355 34 64 359 356 10 359 14 28 8 80 135 72 55 63 9 42 105 97 60
95 134 154 138 152 161 151 152 149 128 130 133 129 126 127 128 131 132 132 134 136 139 140 138 137 137 144 146 149 149 155 163 145 119 129 131 125 128 128 131 129 127 124 123 117 113 104 106 102 93 84 79 74 76 67 57 40 38 44 33 46 39 29 46 53 25 2 352 19 60 359 4 14 341 33 0 0 22 132 169 47 41 35 37 68 28